Time,TemperatureF,DewpointF,PressureIn,WindDirection,WindDirectionDegrees,WindSpeedMPH,WindSpeedGustMPH,Humidity,HourlyPrecipIn,Conditions,Clouds,dailyrainin,SoftwareType,DateUTC
2013-01-02 00:00:00,45.4,19.3,30.08,NE,45,0.0,4.0,35,0.00,,,-99.99,WeatherLink 5.7,2013-01-02 08:00:00,
2013-01-02 00:03:00,48.9,11.7,30.08,NNW,344,1.0,5.0,22,0.00,,,0.00,Wunderground v.1.12,2013-01-02 08:03:00,
2013-01-02 00:04:00,49.1,11.8,30.08,NNW,344,1.0,5.0,22,0.00,,,0.00,Wunderground v.1.12,2013-01-02 08:04:00,
2013-01-02 00:10:00,48.9,17.2,30.08,East,83,2.0,2.0,28,0.00,,,0.00,Wunderground v.1.12,2013-01-02 08:10:00,
2013-01-02 00:12:00,48.8,16.2,30.08,East,83,0.0,2.0,27,0.00,,,0.00,Wunderground v.1.12,2013-01-02 08:12:00,
2013-01-02 00:13:00,48.6,16.9,30.08,East,83,0.0,2.0,28,0.00,,,0.00,Wunderground v.1.12,2013-01-02 08:13:00,
2013-01-02 00:15:00,44.2,18.9,30.08,East,90,1.0,7.0,36,0.00,,,-99.99,WeatherLink 5.7,2013-01-02 08:15:00,
2013-01-02 00:19:00,48.2,19.7,30.08,East,83,0.0,0.0,32,0.00,,,0.00,Wunderground v.1.12,2013-01-02 08:19:00,
2013-01-02 00:20:00,48.0,20.2,30.08,East,83,0.0,0.0,33,0.00,,,0.00,Wunderground v.1.12,2013-01-02 08:20:00,
2013-01-02 00:24:00,47.4,20.4,30.08,East,83,0.0,0.0,34,0.00,,,0.00,Wunderground v.1.12,2013-01-02 08:24:00,
2013-01-02 00:26:00,47.1,20.1,30.08,East,83,0.0,0.0,34,0.00,,,0.00,Wunderground v.1.12,2013-01-02 08:26:00,
2013-01-02 00:27:00,47.0,20.7,30.08,East,83,0.0,0.0,35,0.00,,,0.00,Wunderground v.1.12,2013-01-02 08:27:00,
2013-01-02 00:30:00,44.3,19.0,30.08,East,90,1.0,7.0,36,0.00,,,-99.99,WeatherLink 5.7,2013-01-02 08:30:00,
2013-01-02 00:32:00,46.2,21.3,30.08,East,83,0.0,0.0,37,0.00,,,0.00,Wunderground v.1.12,2013-01-02 08:32:00,
2013-01-02 00:33:00,46.1,21.9,30.08,East,83,0.0,0.0,38,0.00,,,0.00,Wunderground v.1.12,2013-01-02 08:33:00,
2013-01-02 00:34:00,46.1,21.9,30.08,East,83,0.0,0.0,38,0.00,,,0.00,Wunderground v.1.12,2013-01-02 08:34:00,
2013-01-02 00:39:00,45.2,17.0,30.08,NW,325,5.0,10.0,32,0.00,,,0.00,Wunderground v.1.12,2013-01-02 08:39:00,
2013-01-02 00:41:00,45.2,16.3,30.08,NNW,337,0.0,2.0,31,0.00,,,0.00,Wunderground v.1.12,2013-01-02 08:41:00,
2013-01-02 00:45:00,45.4,17.2,30.08,North,360,0.0,2.0,32,0.00,,,0.00,Wunderground v.1.12,2013-01-02 08:45:00,
2013-01-02 00:48:00,45.4,16.5,30.07,North,360,4.0,4.0,31,0.00,,,0.00,Wunderground v.1.12,2013-01-02 08:48:00,
2013-01-02 00:51:00,45.7,13.6,30.07,NNW,331,0.0,2.0,27,0.00,,,0.00,Wunderground v.1.12,2013-01-02 08:51:00,
2013-01-02 00:52:00,45.7,13.6,30.07,NNW,331,0.0,2.0,27,0.00,,,0.00,Wunderground v.1.12,2013-01-02 08:52:00,
2013-01-02 00:55:00,46.1,14.8,30.07,NNW,331,0.0,1.0,28,0.00,,,0.00,Wunderground v.1.12,2013-01-02 08:55:00,
2013-01-02 00:56:00,46.2,14.8,30.07,NNW,330,2.0,2.0,28,0.00,,,0.00,Wunderground v.1.12,2013-01-02 08:56:00,
2013-01-02 01:00:00,47.7,11.6,30.06,NNE,22,4.0,14.0,23,0.00,,,-99.99,WeatherLink 5.7,2013-01-02 09:00:00,
2013-01-02 01:02:00,46.2,17.2,30.07,NNW,330,0.0,0.0,31,0.00,,,0.00,Wunderground v.1.12,2013-01-02 09:02:00,
2013-01-02 01:03:00,46.1,17.1,30.08,NNW,330,0.0,0.0,31,0.00,,,0.00,Wunderground v.1.12,2013-01-02 09:03:00,
2013-01-02 01:04:00,46.1,17.8,30.08,NNW,330,2.0,2.0,32,0.00,,,0.00,Wunderground v.1.12,2013-01-02 09:04:00,
2013-01-02 01:08:00,45.8,16.8,30.08,NNE,31,3.0,4.0,31,0.00,,,0.00,Wunderground v.1.12,2013-01-02 09:08:00,
2013-01-02 01:09:00,45.8,15.3,30.08,NNE,31,0.0,4.0,29,0.00,,,0.00,Wunderground v.1.12,2013-01-02 09:09:00,
2013-01-02 01:10:00,45.8,14.5,30.08,NNE,31,0.0,1.0,28,0.00,,,0.00,Wunderground v.1.12,2013-01-02 09:10:00,
2013-01-02 01:14:00,46.0,15.5,30.08,NNE,31,0.0,1.0,29,0.00,,,0.00,Wunderground v.1.12,2013-01-02 09:14:00,
2013-01-02 01:15:00,46.0,16.3,30.08,NW,307,5.0,5.0,30,0.00,,,0.00,Wunderground v.1.12,2013-01-02 09:15:00,
2013-01-02 01:17:00,46.0,13.8,30.08,NNW,340,0.0,5.0,27,0.00,,,0.00,Wunderground v.1.12,2013-01-02 09:17:00,
2013-01-02 01:19:00,46.1,14.8,30.07,NE,42,0.0,5.0,28,0.00,,,0.00,Wunderground v.1.12,2013-01-02 09:19:00,
2013-01-02 01:21:00,46.1,16.3,30.07,NE,42,2.0,2.0,30,0.00,,,0.00,Wunderground v.1.12,2013-01-02 09:21:00,
2013-01-02 01:23:00,46.0,17.7,30.07,ENE,59,0.0,2.0,32,0.00,,,0.00,Wunderground v.1.12,2013-01-02 09:23:00,
2013-01-02 01:24:00,46.0,17.7,30.07,ENE,59,0.0,2.0,32,0.00,,,0.00,Wunderground v.1.12,2013-01-02 09:24:00,
2013-01-02 01:26:00,46.0,18.5,30.07,ENE,59,0.0,1.0,33,0.00,,,0.00,Wunderground v.1.12,2013-01-02 09:26:00,
2013-01-02 01:29:00,45.8,19.0,30.07,ENE,61,0.0,3.0,34,0.00,,,0.00,Wunderground v.1.12,2013-01-02 09:29:00,
2013-01-02 01:30:00,50.8,11.1,30.05,NNE,22,5.0,13.0,20,0.00,,,-99.99,WeatherLink 5.7,2013-01-02 09:30:00,
2013-01-02 01:33:00,45.4,19.3,30.07,ENE,61,0.0,1.0,35,0.00,,,0.00,Wunderground v.1.12,2013-01-02 09:33:00,
2013-01-02 01:35:00,45.4,19.3,30.07,ENE,61,0.0,0.0,35,0.00,,,0.00,Wunderground v.1.12,2013-01-02 09:35:00,
2013-01-02 01:36:00,45.2,19.8,30.07,ENE,61,0.0,0.0,36,0.00,,,0.00,Wunderground v.1.12,2013-01-02 09:36:00,
2013-01-02 01:39:00,45.1,20.3,30.07,East,82,0.0,4.0,37,0.00,,,0.00,Wunderground v.1.12,2013-01-02 09:39:00,
2013-01-02 01:42:00,44.8,20.1,30.07,East,82,0.0,2.0,37,0.00,,,0.00,Wunderground v.1.12,2013-01-02 09:42:00,
2013-01-02 01:45:00,44.5,20.4,30.07,SSE,153,5.0,5.0,38,0.00,,,0.00,Wunderground v.1.12,2013-01-02 09:45:00,
2013-01-02 01:47:00,44.3,19.6,30.07,WNW,296,3.0,5.0,37,0.00,,,0.00,Wunderground v.1.12,2013-01-02 09:47:00,
2013-01-02 01:48:00,44.2,18.9,30.08,WNW,297,0.0,5.0,36,0.00,,,0.00,Wunderground v.1.12,2013-01-02 09:48:00,
2013-01-02 01:52:00,44.3,18.3,30.08,NNW,344,0.0,1.0,35,0.00,,,0.00,Wunderground v.1.12,2013-01-02 09:52:00,
2013-01-02 01:53:00,44.3,18.3,30.08,NNW,344,0.0,1.0,35,0.00,,,0.00,Wunderground v.1.12,2013-01-02 09:53:00,
2013-01-02 01:54:00,44.3,18.3,30.08,NNW,344,0.0,1.0,35,0.00,,,0.00,Wunderground v.1.12,2013-01-02 09:54:00,
2013-01-02 01:57:00,44.3,18.3,30.08,NNW,342,1.0,2.0,35,0.00,,,0.00,Wunderground v.1.12,2013-01-02 09:57:00,
2013-01-02 02:00:00,51.0,13.4,30.04,WNW,292,3.0,11.0,22,0.00,,,-99.99,WeatherLink 5.7,2013-01-02 10:00:00,
2013-01-02 02:01:00,44.3,18.3,30.08,ENE,78,5.0,5.0,35,0.00,,,0.00,Wunderground v.1.12,2013-01-02 10:01:00,
2013-01-02 02:02:00,44.3,18.3,30.08,East,84,2.0,6.0,35,0.00,,,0.00,Wunderground v.1.12,2013-01-02 10:02:00,
2013-01-02 02:06:00,44.3,19.6,30.08,ENE,75,5.0,6.0,37,0.00,,,0.00,Wunderground v.1.12,2013-01-02 10:06:00,
2013-01-02 02:07:00,44.2,20.2,30.08,ENE,76,2.0,6.0,38,0.00,,,0.00,Wunderground v.1.12,2013-01-02 10:07:00,
2013-01-02 02:11:00,43.9,20.5,30.08,SSE,159,1.0,2.0,39,0.00,,,0.00,Wunderground v.1.12,2013-01-02 10:11:00,
2013-01-02 02:12:00,43.9,19.9,30.08,SSE,159,0.0,2.0,38,0.00,,,0.00,Wunderground v.1.12,2013-01-02 10:12:00,
2013-01-02 02:15:00,49.4,15.0,30.04,SW,225,2.0,7.0,25,0.00,,,-99.99,WeatherLink 5.7,2013-01-02 10:15:00,
2013-01-02 02:16:00,43.8,20.4,30.08,SSE,159,0.0,1.0,39,0.00,,,0.00,Wunderground v.1.12,2013-01-02 10:16:00,
2013-01-02 02:17:00,43.8,20.4,30.08,SSE,159,0.0,1.0,39,0.00,,,0.00,Wunderground v.1.12,2013-01-02 10:17:00,
2013-01-02 02:21:00,43.6,17.0,30.07,North,350,0.0,5.0,34,0.00,,,0.00,Wunderground v.1.12,2013-01-02 10:21:00,
2013-01-02 02:22:00,43.8,17.2,30.07,North,355,11.0,11.0,34,0.00,,,0.00,Wunderground v.1.12,2013-01-02 10:22:00,
2013-01-02 02:26:00,45.5,12.5,30.07,NNE,28,1.0,13.0,26,0.00,,,0.00,Wunderground v.1.12,2013-01-02 10:26:00,
2013-01-02 02:27:00,46.0,13.0,30.07,NNE,31,1.0,13.0,26,0.00,,,0.00,Wunderground v.1.12,2013-01-02 10:27:00,
2013-01-02 02:28:00,46.1,12.2,30.07,NNE,32,2.0,13.0,25,0.00,,,0.00,Wunderground v.1.12,2013-01-02 10:28:00,
2013-01-02 02:30:00,46.0,18.5,30.04,SSE,157,1.0,9.0,33,0.00,,,-99.99,WeatherLink 5.7,2013-01-02 10:30:00,
2013-01-02 02:32:00,47.4,12.4,30.07,North,9,4.0,6.0,24,0.00,,,0.00,Wunderground v.1.12,2013-01-02 10:32:00,
2013-01-02 02:33:00,47.7,11.6,30.06,NNW,347,3.0,9.0,23,0.00,,,0.00,Wunderground v.1.12,2013-01-02 10:33:00,
2013-01-02 02:37:00,48.5,12.3,30.06,NNE,14,6.0,12.0,23,0.00,,,0.00,Wunderground v.1.12,2013-01-02 10:37:00,
2013-01-02 02:38:00,48.6,12.4,30.06,NE,47,4.0,12.0,23,0.00,,,0.00,Wunderground v.1.12,2013-01-02 10:38:00,
2013-01-02 02:42:00,49.2,11.9,30.06,NNE,32,7.0,7.0,22,0.00,,,0.00,Wunderground v.1.12,2013-01-02 10:42:00,
2013-01-02 02:43:00,49.2,11.9,30.06,NNE,25,3.0,10.0,22,0.00,,,0.00,Wunderground v.1.12,2013-01-02 10:43:00,
2013-01-02 02:45:00,49.4,11.0,30.03,NE,45,7.0,22.0,21,0.00,,,-99.99,WeatherLink 5.7,2013-01-02 10:45:00,
2013-01-02 02:47:00,49.6,11.2,30.06,NNE,19,4.0,13.0,21,0.00,,,0.00,Wunderground v.1.12,2013-01-02 10:47:00,
2013-01-02 02:48:00,49.8,11.4,30.06,NE,47,5.0,13.0,21,0.00,,,0.00,Wunderground v.1.12,2013-01-02 10:48:00,
2013-01-02 02:49:00,49.8,11.4,30.06,East,80,6.0,13.0,21,0.00,,,0.00,Wunderground v.1.12,2013-01-02 10:49:00,
2013-01-02 02:53:00,50.2,11.7,30.06,ENE,72,4.0,13.0,21,0.00,,,0.00,Wunderground v.1.12,2013-01-02 10:53:00,
2013-01-02 02:54:00,50.4,11.9,30.06,ENE,59,1.0,13.0,21,0.00,,,0.00,Wunderground v.1.12,2013-01-02 10:54:00,
2013-01-02 02:58:00,50.5,12.0,30.06,NNE,22,1.0,9.0,21,0.00,,,0.00,Wunderground v.1.12,2013-01-02 10:58:00,
2013-01-02 02:59:00,50.5,12.0,30.06,ENE,63,4.0,9.0,21,0.00,,,0.00,Wunderground v.1.12,2013-01-02 10:59:00,
2013-01-02 03:00:00,50.8,12.2,30.03,NNW,337,3.0,11.0,21,0.00,,,-99.99,WeatherLink 5.7,2013-01-02 11:00:00,
2013-01-02 03:03:00,50.8,11.1,30.05,NE,55,1.0,11.0,20,0.00,,,0.00,Wunderground v.1.12,2013-01-02 11:03:00,
2013-01-02 03:04:00,50.8,11.1,30.05,NNE,32,2.0,11.0,20,0.00,,,0.00,Wunderground v.1.12,2013-01-02 11:04:00,
2013-01-02 03:08:00,51.1,11.4,30.05,NNE,13,2.0,21.0,20,0.00,,,0.00,Wunderground v.1.12,2013-01-02 11:08:00,
2013-01-02 03:09:00,51.1,11.4,30.05,NNE,32,12.0,21.0,20,0.00,,,0.00,Wunderground v.1.12,2013-01-02 11:09:00,
2013-01-02 03:14:00,51.3,10.4,30.05,NW,311,6.0,11.0,19,0.00,,,0.00,Wunderground v.1.12,2013-01-02 11:14:00,
2013-01-02 03:15:00,49.1,13.8,30.03,SSW,202,1.0,9.0,24,0.00,,,-99.99,WeatherLink 5.7,2013-01-02 11:15:00,
2013-01-02 03:18:00,51.6,10.6,30.04,WNW,290,6.0,15.0,19,0.00,,,0.00,Wunderground v.1.12,2013-01-02 11:18:00,
2013-01-02 03:19:00,51.6,10.6,30.04,WNW,290,6.0,15.0,19,0.00,,,0.00,Wunderground v.1.12,2013-01-02 11:19:00,
2013-01-02 03:24:00,51.7,11.9,30.04,WNW,300,2.0,7.0,20,0.00,,,0.00,Wunderground v.1.12,2013-01-02 11:24:00,
2013-01-02 03:29:00,51.4,10.4,30.04,South,185,3.0,5.0,19,0.00,,,0.00,Wunderground v.1.12,2013-01-02 11:29:00,
2013-01-02 03:30:00,47.3,15.8,30.04,ESE,112,0.0,3.0,28,0.00,,,-99.99,WeatherLink 5.7,2013-01-02 11:30:00,
2013-01-02 03:34:00,51.0,12.4,30.04,NNW,328,4.0,7.0,21,0.00,,,0.00,Wunderground v.1.12,2013-01-02 11:34:00,
2013-01-02 03:35:00,51.0,11.3,30.04,South,169,2.0,3.0,20,0.00,,,0.00,Wunderground v.1.12,2013-01-02 11:35:00,
2013-01-02 03:39:00,50.5,14.0,30.04,SSE,160,3.0,6.0,23,0.00,,,0.00,Wunderground v.1.12,2013-01-02 11:39:00,
2013-01-02 03:40:00,50.4,13.9,30.04,SSE,160,0.0,3.0,23,0.00,,,0.00,Wunderground v.1.12,2013-01-02 11:40:00,
2013-01-02 03:44:00,50.1,14.7,30.04,SSE,160,2.0,3.0,24,0.00,,,0.00,Wunderground v.1.12,2013-01-02 11:44:00,
2013-01-02 03:45:00,49.9,14.5,30.04,South,184,4.0,4.0,24,0.00,,,0.00,Wunderground v.1.12,2013-01-02 11:45:00,
2013-01-02 03:49:00,49.2,14.8,30.04,South,179,2.0,5.0,25,0.00,,,0.00,Wunderground v.1.12,2013-01-02 11:49:00,
2013-01-02 03:50:00,49.1,15.6,30.04,South,170,5.0,5.0,26,0.00,,,0.00,Wunderground v.1.12,2013-01-02 11:50:00,
2013-01-02 03:51:00,48.8,15.4,30.04,SSE,163,0.0,6.0,26,0.00,,,0.00,Wunderground v.1.12,2013-01-02 11:51:00,
2013-01-02 03:55:00,48.0,16.4,30.04,SSE,163,0.0,2.0,28,0.00,,,0.00,Wunderground v.1.12,2013-01-02 11:55:00,
2013-01-02 03:56:00,47.9,17.1,30.04,SSE,163,1.0,2.0,29,0.00,,,0.00,Wunderground v.1.12,2013-01-02 11:56:00,
2013-01-02 04:00:00,46.5,18.2,30.04,North,355,0.0,2.0,32,0.00,,,0.00,Wunderground v.1.12,2013-01-02 12:00:00,
2013-01-02 04:01:00,46.4,18.1,30.04,NNW,329,0.0,2.0,32,0.00,,,0.00,Wunderground v.1.12,2013-01-02 12:01:00,
2013-01-02 04:02:00,46.2,17.9,30.04,West,273,4.0,4.0,32,0.00,,,0.00,Wunderground v.1.12,2013-01-02 12:02:00,
2013-01-02 04:05:00,45.7,18.2,30.04,WNW,282,1.0,3.0,33,0.00,,,0.00,Wunderground v.1.12,2013-01-02 12:05:00,
2013-01-02 04:06:00,45.5,18.0,30.04,NNE,14,6.0,6.0,33,0.00,,,0.00,Wunderground v.1.12,2013-01-02 12:06:00,
2013-01-02 04:08:00,45.4,14.9,30.04,East,82,5.0,8.0,29,0.00,,,0.00,Wunderground v.1.12,2013-01-02 12:08:00,
2013-01-02 04:10:00,45.8,12.8,30.04,NNE,22,11.0,11.0,26,0.00,,,0.00,Wunderground v.1.12,2013-01-02 12:10:00,
2013-01-02 04:11:00,46.4,12.4,30.04,NE,38,4.0,11.0,25,0.00,,,0.00,Wunderground v.1.12,2013-01-02 12:11:00,
2013-01-02 04:13:00,47.0,12.0,30.04,NNE,17,12.0,17.0,24,0.00,,,0.00,Wunderground v.1.12,2013-01-02 12:13:00,
2013-01-02 04:15:00,48.6,11.4,30.04,NNE,15,14.0,16.0,22,0.00,,,0.00,Wunderground v.1.12,2013-01-02 12:15:00,
2013-01-02 04:16:00,48.8,11.6,30.04,NNE,26,19.0,20.0,22,0.00,,,0.00,Wunderground v.1.12,2013-01-02 12:16:00,
2013-01-02 04:18:00,49.4,11.0,30.03,North,355,6.0,21.0,21,0.00,,,0.00,Wunderground v.1.12,2013-01-02 12:18:00,
2013-01-02 04:20:00,50.2,10.6,30.03,NNW,333,4.0,9.0,20,0.00,,,0.00,Wunderground v.1.12,2013-01-02 12:20:00,
2013-01-02 04:21:00,50.4,10.8,30.03,NNW,332,2.0,9.0,20,0.00,,,0.00,Wunderground v.1.12,2013-01-02 12:21:00,
2013-01-02 04:22:00,50.4,11.9,30.03,NNW,339,4.0,10.0,21,0.00,,,0.00,Wunderground v.1.12,2013-01-02 12:22:00,
2013-01-02 04:23:00,50.5,10.9,30.03,NNE,31,4.0,10.0,20,0.00,,,0.00,Wunderground v.1.12,2013-01-02 12:23:00,
2013-01-02 04:25:00,50.7,11.0,30.03,North,355,3.0,9.0,20,0.00,,,0.00,Wunderground v.1.12,2013-01-02 12:25:00,
2013-01-02 04:26:00,50.8,11.1,30.03,NNW,347,1.0,9.0,20,0.00,,,0.00,Wunderground v.1.12,2013-01-02 12:26:00,
2013-01-02 04:27:00,50.8,11.1,30.03,NNW,347,0.0,9.0,20,0.00,,,0.00,Wunderground v.1.12,2013-01-02 12:27:00,
2013-01-02 04:29:00,50.8,11.1,30.03,NNW,347,0.0,9.0,20,0.00,,,0.00,Wunderground v.1.12,2013-01-02 12:29:00,
2013-01-02 04:30:00,51.0,11.3,30.03,NNW,348,4.0,4.0,20,0.00,,,0.00,Wunderground v.1.12,2013-01-02 12:30:00,
2013-01-02 04:32:00,50.8,12.2,30.03,NE,42,2.0,6.0,21,0.00,,,0.00,Wunderground v.1.12,2013-01-02 12:32:00,
2013-01-02 04:34:00,50.7,11.0,30.03,NW,321,0.0,9.0,20,0.00,,,0.00,Wunderground v.1.12,2013-01-02 12:34:00,
2013-01-02 04:35:00,50.7,11.0,30.03,East,94,0.0,4.0,20,0.00,,,0.00,Wunderground v.1.12,2013-01-02 12:35:00,
2013-01-02 04:37:00,50.7,12.1,30.03,East,94,0.0,4.0,21,0.00,,,0.00,Wunderground v.1.12,2013-01-02 12:37:00,
2013-01-02 04:39:00,50.4,12.9,30.03,East,94,0.0,4.0,22,0.00,,,0.00,Wunderground v.1.12,2013-01-02 12:39:00,
2013-01-02 04:40:00,50.4,13.9,30.03,East,94,0.0,2.0,23,0.00,,,0.00,Wunderground v.1.12,2013-01-02 12:40:00,
2013-01-02 04:42:00,50.2,14.7,30.03,East,94,0.0,2.0,24,0.00,,,0.00,Wunderground v.1.12,2013-01-02 12:42:00,
2013-01-02 04:44:00,49.8,14.4,30.03,SSW,213,4.0,5.0,24,0.00,,,0.00,Wunderground v.1.12,2013-01-02 12:44:00,
2013-01-02 04:45:00,41.3,19.3,30.06,SW,225,1.0,5.0,41,0.00,,,-99.99,WeatherLink 5.7,2013-01-02 12:45:00,
2013-01-02 04:46:00,49.5,14.1,30.03,SSW,213,3.0,4.0,24,0.00,,,0.00,Wunderground v.1.12,2013-01-02 12:46:00,
2013-01-02 04:47:00,49.2,13.9,30.03,SSW,213,0.0,4.0,24,0.00,,,0.00,Wunderground v.1.12,2013-01-02 12:47:00,
2013-01-02 04:50:00,48.9,14.6,30.03,ESE,121,0.0,1.0,25,0.00,,,0.00,Wunderground v.1.12,2013-01-02 12:50:00,
2013-01-02 04:51:00,48.8,15.4,30.03,ESE,121,0.0,1.0,26,0.00,,,0.00,Wunderground v.1.12,2013-01-02 12:51:00,
2013-01-02 04:52:00,48.6,15.2,30.03,ESE,121,0.0,1.0,26,0.00,,,0.00,Wunderground v.1.12,2013-01-02 12:52:00,
2013-01-02 04:55:00,48.5,15.1,30.03,ESE,121,0.0,1.0,26,0.00,,,0.00,Wunderground v.1.12,2013-01-02 12:55:00,
2013-01-02 04:56:00,48.5,15.1,30.03,ESE,121,0.0,1.0,26,0.00,,,0.00,Wunderground v.1.12,2013-01-02 12:56:00,
2013-01-02 04:58:00,48.0,15.6,30.03,ESE,121,0.0,1.0,27,0.00,,,0.00,Wunderground v.1.12,2013-01-02 12:58:00,
2013-01-02 05:00:00,47.7,16.1,30.03,ESE,121,0.0,0.0,28,0.00,,,0.00,Wunderground v.1.12,2013-01-02 13:00:00,
2013-01-02 05:01:00,47.6,16.1,30.03,ESE,121,0.0,0.0,28,0.00,,,0.00,Wunderground v.1.12,2013-01-02 13:01:00,
2013-01-02 05:03:00,47.4,15.9,30.04,ESE,121,0.0,0.0,28,0.00,,,0.00,Wunderground v.1.12,2013-01-02 13:03:00,
2013-01-02 05:05:00,47.1,16.4,30.04,ESE,121,0.0,0.0,29,0.00,,,0.00,Wunderground v.1.12,2013-01-02 13:05:00,
2013-01-02 05:07:00,47.0,16.3,30.04,ESE,121,0.0,0.0,29,0.00,,,0.00,Wunderground v.1.12,2013-01-02 13:07:00,
2013-01-02 05:08:00,46.7,16.9,30.04,ESE,121,0.0,0.0,30,0.00,,,0.00,Wunderground v.1.12,2013-01-02 13:08:00,
2013-01-02 05:11:00,46.4,17.4,30.04,ESE,121,0.0,0.0,31,0.00,,,0.00,Wunderground v.1.12,2013-01-02 13:11:00,
2013-01-02 05:12:00,46.2,17.2,30.04,ESE,121,0.0,0.0,31,0.00,,,0.00,Wunderground v.1.12,2013-01-02 13:12:00,
2013-01-02 05:13:00,46.0,17.0,30.04,SSW,205,2.0,5.0,31,0.00,,,0.00,Wunderground v.1.12,2013-01-02 13:13:00,
2013-01-02 05:15:00,42.9,11.2,30.05,WNW,292,3.0,11.0,27,0.00,,,-99.99,WeatherLink 5.7,2013-01-02 13:15:00,
2013-01-02 05:16:00,45.2,17.8,30.04,South,187,0.0,2.0,33,0.00,,,0.00,Wunderground v.1.12,2013-01-02 13:16:00,
2013-01-02 05:17:00,45.1,18.4,30.04,South,187,0.0,2.0,34,0.00,,,0.00,Wunderground v.1.12,2013-01-02 13:17:00,
2013-01-02 05:18:00,44.9,18.2,30.04,South,187,0.0,2.0,34,0.00,,,0.00,Wunderground v.1.12,2013-01-02 13:18:00,
2013-01-02 05:21:00,44.5,18.5,30.04,NNW,346,1.0,4.0,35,0.00,,,0.00,Wunderground v.1.12,2013-01-02 13:21:00,
2013-01-02 05:22:00,44.3,18.3,30.04,West,273,0.0,4.0,35,0.00,,,0.00,Wunderground v.1.12,2013-01-02 13:22:00,
2013-01-02 05:23:00,44.2,18.2,30.04,SE,132,0.0,5.0,35,0.00,,,0.00,Wunderground v.1.12,2013-01-02 13:23:00,
2013-01-02 05:24:00,44.2,17.6,30.04,SE,132,0.0,5.0,34,0.00,,,0.00,Wunderground v.1.12,2013-01-02 13:24:00,
2013-01-02 05:27:00,44.1,17.5,30.04,SSW,207,1.0,7.0,34,0.00,,,0.00,Wunderground v.1.12,2013-01-02 13:27:00,
2013-01-02 05:28:00,43.9,17.3,30.04,NW,305,0.0,7.0,34,0.00,,,0.00,Wunderground v.1.12,2013-01-02 13:28:00,
2013-01-02 05:29:00,43.9,17.3,30.04,NW,305,0.0,7.0,34,0.00,,,0.00,Wunderground v.1.12,2013-01-02 13:29:00,
2013-01-02 05:30:00,47.6,10.6,30.04,NNW,337,6.0,15.0,22,0.00,,,-99.99,WeatherLink 5.7,2013-01-02 13:30:00,
2013-01-02 05:32:00,43.8,17.2,30.04,SW,236,1.0,10.0,34,0.00,,,0.00,Wunderground v.1.12,2013-01-02 13:32:00,
2013-01-02 05:34:00,43.8,17.2,30.04,NW,313,0.0,10.0,34,0.00,,,0.00,Wunderground v.1.12,2013-01-02 13:34:00,
2013-01-02 05:37:00,43.9,15.9,30.04,SW,215,4.0,6.0,32,0.00,,,0.00,Wunderground v.1.12,2013-01-02 13:37:00,
2013-01-02 05:39:00,43.9,16.6,30.04,SW,216,0.0,6.0,33,0.00,,,0.00,Wunderground v.1.12,2013-01-02 13:39:00,
2013-01-02 05:42:00,43.8,17.9,30.04,SW,216,0.0,4.0,35,0.00,,,0.00,Wunderground v.1.12,2013-01-02 13:42:00,
2013-01-02 05:44:00,43.8,17.9,30.04,SW,216,0.0,4.0,35,0.00,,,0.00,Wunderground v.1.12,2013-01-02 13:44:00,
2013-01-02 05:45:00,47.0,16.3,30.04,SE,135,3.0,10.0,29,0.00,,,-99.99,WeatherLink 5.7,2013-01-02 13:45:00,
2013-01-02 05:47:00,43.6,18.4,30.05,SW,216,0.0,1.0,36,0.00,,,0.00,Wunderground v.1.12,2013-01-02 13:47:00,
2013-01-02 05:49:00,43.5,18.3,30.05,SW,216,0.0,1.0,36,0.00,,,0.00,Wunderground v.1.12,2013-01-02 13:49:00,
2013-01-02 05:50:00,43.5,18.3,30.05,SW,216,0.0,0.0,36,0.00,,,0.00,Wunderground v.1.12,2013-01-02 13:50:00,
2013-01-02 05:53:00,43.2,18.6,30.05,SW,216,0.0,0.0,37,0.00,,,0.00,Wunderground v.1.12,2013-01-02 13:53:00,
2013-01-02 05:55:00,43.2,18.6,30.05,SW,216,0.0,0.0,37,0.00,,,0.00,Wunderground v.1.12,2013-01-02 13:55:00,
2013-01-02 05:58:00,42.8,18.3,30.05,SW,216,0.0,2.0,37,0.00,,,0.00,Wunderground v.1.12,2013-01-02 13:58:00,
2013-01-02 06:00:00,42.8,18.9,30.05,SW,216,0.0,0.0,38,0.00,,,0.00,Wunderground v.1.12,2013-01-02 14:00:00,
2013-01-02 06:03:00,42.5,19.3,30.05,SW,216,0.0,0.0,39,0.00,,,0.00,Wunderground v.1.12,2013-01-02 14:03:00,
2013-01-02 06:05:00,42.3,20.2,30.05,SW,216,0.0,0.0,41,0.00,,,0.00,Wunderground v.1.12,2013-01-02 14:05:00,
2013-01-02 06:09:00,42.2,19.6,30.05,SW,216,0.0,0.0,40,0.00,,,0.00,Wunderground v.1.12,2013-01-02 14:09:00,
2013-01-02 06:10:00,42.1,19.5,30.05,SW,216,0.0,0.0,40,0.00,,,0.00,Wunderground v.1.12,2013-01-02 14:10:00,
2013-01-02 06:14:00,41.8,19.2,30.05,SW,216,0.0,3.0,40,0.00,,,0.00,Wunderground v.1.12,2013-01-02 14:14:00,
2013-01-02 06:15:00,41.6,19.0,30.05,SW,216,0.0,0.0,40,0.00,,,0.00,Wunderground v.1.12,2013-01-02 14:15:00,
2013-01-02 06:16:00,41.6,19.0,30.05,SW,216,0.0,0.0,40,0.00,,,0.00,Wunderground v.1.12,2013-01-02 14:16:00,
2013-01-02 06:20:00,41.2,19.8,30.06,WNW,286,6.0,6.0,42,0.00,,,0.00,Wunderground v.1.12,2013-01-02 14:20:00,
2013-01-02 06:21:00,41.1,19.7,30.06,WSW,250,4.0,7.0,42,0.00,,,0.00,Wunderground v.1.12,2013-01-02 14:21:00,
2013-01-02 06:25:00,40.9,19.5,30.06,SW,219,0.0,2.0,42,0.00,,,0.00,Wunderground v.1.12,2013-01-02 14:25:00,
2013-01-02 06:26:00,40.9,19.5,30.06,SW,219,2.0,2.0,42,0.00,,,0.00,Wunderground v.1.12,2013-01-02 14:26:00,
2013-01-02 06:30:00,40.8,18.9,30.06,SW,219,0.0,2.0,41,0.00,,,0.00,Wunderground v.1.12,2013-01-02 14:30:00,
2013-01-02 06:31:00,40.8,18.9,30.06,SW,219,0.0,2.0,41,0.00,,,0.00,Wunderground v.1.12,2013-01-02 14:31:00,
2013-01-02 06:35:00,40.8,18.9,30.05,SE,130,0.0,1.0,41,0.00,,,0.00,Wunderground v.1.12,2013-01-02 14:35:00,
2013-01-02 06:36:00,40.8,18.9,30.05,SE,130,1.0,3.0,41,0.00,,,0.00,Wunderground v.1.12,2013-01-02 14:36:00,
2013-01-02 06:40:00,40.8,18.9,30.05,WNW,294,4.0,4.0,41,0.00,,,0.00,Wunderground v.1.12,2013-01-02 14:40:00,
2013-01-02 06:41:00,40.8,17.7,30.05,NNW,336,3.0,10.0,39,0.00,,,0.00,Wunderground v.1.12,2013-01-02 14:41:00,
2013-01-02 06:42:00,40.8,17.7,30.05,West,279,4.0,10.0,39,0.00,,,0.00,Wunderground v.1.12,2013-01-02 14:42:00,
2013-01-02 06:45:00,44.1,19.5,30.06,SE,135,0.0,3.0,37,0.00,,,-99.99,WeatherLink 5.7,2013-01-02 14:45:00,
2013-01-02 06:46:00,42.1,12.1,30.05,NW,304,2.0,11.0,29,0.00,,,0.00,Wunderground v.1.12,2013-01-02 14:46:00,
2013-01-02 06:47:00,42.6,12.5,30.05,WNW,288,4.0,11.0,29,0.00,,,0.00,Wunderground v.1.12,2013-01-02 14:47:00,
2013-01-02 06:51:00,44.2,11.4,30.05,NW,309,3.0,10.0,26,0.00,,,0.00,Wunderground v.1.12,2013-01-02 14:51:00,
2013-01-02 06:52:00,44.6,11.8,30.05,NW,326,4.0,10.0,26,0.00,,,0.00,Wunderground v.1.12,2013-01-02 14:52:00,
2013-01-02 06:56:00,46.0,11.2,30.05,NNW,332,4.0,6.0,24,0.00,,,0.00,Wunderground v.1.12,2013-01-02 14:56:00,
2013-01-02 06:58:00,46.4,10.5,30.05,NNE,15,8.0,13.0,23,0.00,,,0.00,Wunderground v.1.12,2013-01-02 14:58:00,
2013-01-02 07:00:00,46.0,17.7,30.06,SE,135,0.0,3.0,32,0.00,,,-99.99,WeatherLink 5.7,2013-01-02 15:00:00,
2013-01-02 07:01:00,47.4,11.4,30.05,NNW,348,4.0,10.0,23,0.00,,,0.00,Wunderground v.1.12,2013-01-02 15:01:00,
2013-01-02 07:02:00,47.6,11.6,30.05,NNW,345,7.0,11.0,23,0.00,,,0.00,Wunderground v.1.12,2013-01-02 15:02:00,
2013-01-02 07:03:00,47.6,10.6,30.04,WNW,292,5.0,11.0,22,0.00,,,0.00,Wunderground v.1.12,2013-01-02 15:03:00,
2013-01-02 07:07:00,48.0,10.9,30.04,WNW,290,2.0,6.0,22,0.00,,,0.00,Wunderground v.1.12,2013-01-02 15:07:00,
2013-01-02 07:08:00,48.0,10.9,30.04,WNW,292,4.0,6.0,22,0.00,,,0.00,Wunderground v.1.12,2013-01-02 15:08:00,
2013-01-02 07:12:00,48.2,12.1,30.04,East,86,7.0,7.0,23,0.00,,,0.00,Wunderground v.1.12,2013-01-02 15:12:00,
2013-01-02 07:13:00,48.0,14.7,30.04,SE,136,2.0,10.0,26,0.00,,,0.00,Wunderground v.1.12,2013-01-02 15:13:00,
2013-01-02 07:15:00,48.2,15.7,30.06,SE,135,0.0,1.0,27,0.00,,,-99.99,WeatherLink 5.7,2013-01-02 15:15:00,
2013-01-02 07:17:00,47.1,16.4,30.04,SE,136,1.0,3.0,29,0.00,,,0.00,Wunderground v.1.12,2013-01-02 15:17:00,
2013-01-02 07:18:00,47.0,16.3,30.04,SE,136,0.0,3.0,29,0.00,,,0.00,Wunderground v.1.12,2013-01-02 15:18:00,
2013-01-02 07:22:00,46.2,17.2,30.04,SE,136,2.0,3.0,31,0.00,,,0.00,Wunderground v.1.12,2013-01-02 15:22:00,
2013-01-02 07:23:00,46.0,17.7,30.04,SE,134,2.0,4.0,32,0.00,,,0.00,Wunderground v.1.12,2013-01-02 15:23:00,
2013-01-02 07:27:00,45.1,18.4,30.04,SE,134,0.0,1.0,34,0.00,,,0.00,Wunderground v.1.12,2013-01-02 15:27:00,
2013-01-02 07:28:00,44.9,18.2,30.04,SE,134,0.0,1.0,34,0.00,,,0.00,Wunderground v.1.12,2013-01-02 15:28:00,
2013-01-02 07:29:00,44.8,18.8,30.04,SE,134,0.0,1.0,35,0.00,,,0.00,Wunderground v.1.12,2013-01-02 15:29:00,
2013-01-02 07:30:00,49.9,17.2,30.06,SE,135,0.0,3.0,27,0.00,,,-99.99,WeatherLink 5.7,2013-01-02 15:30:00,
2013-01-02 07:32:00,44.3,19.0,30.05,SE,134,0.0,1.0,36,0.00,,,0.00,Wunderground v.1.12,2013-01-02 15:32:00,
2013-01-02 07:33:00,44.3,19.0,30.05,SE,134,0.0,1.0,36,0.00,,,0.00,Wunderground v.1.12,2013-01-02 15:33:00,
2013-01-02 07:35:00,44.1,19.5,30.05,SE,134,0.0,0.0,37,0.00,,,0.00,Wunderground v.1.12,2013-01-02 15:35:00,
2013-01-02 07:38:00,43.6,19.0,30.05,SE,134,0.0,3.0,37,0.00,,,0.00,Wunderground v.1.12,2013-01-02 15:38:00,
2013-01-02 07:40:00,43.3,19.4,30.05,SE,134,0.0,1.0,38,0.00,,,0.00,Wunderground v.1.12,2013-01-02 15:40:00,
2013-01-02 07:43:00,43.1,19.2,30.05,SE,134,0.0,3.0,38,0.00,,,0.00,Wunderground v.1.12,2013-01-02 15:43:00,
2013-01-02 07:44:00,43.1,19.2,30.05,SE,134,0.0,3.0,38,0.00,,,0.00,Wunderground v.1.12,2013-01-02 15:44:00,
2013-01-02 07:45:00,42.9,19.0,30.05,SE,134,2.0,3.0,38,0.00,,,0.00,Wunderground v.1.12,2013-01-02 15:45:00,
2013-01-02 07:48:00,42.8,18.9,30.06,SE,134,1.0,3.0,38,0.00,,,0.00,Wunderground v.1.12,2013-01-02 15:48:00,
2013-01-02 07:49:00,42.8,18.9,30.06,SE,134,1.0,3.0,38,0.00,,,0.00,Wunderground v.1.12,2013-01-02 15:49:00,
2013-01-02 07:51:00,42.8,18.9,30.06,SE,134,0.0,1.0,38,0.00,,,0.00,Wunderground v.1.12,2013-01-02 15:51:00,
2013-01-02 07:53:00,42.8,18.9,30.06,SE,134,0.0,1.0,38,0.00,,,0.00,Wunderground v.1.12,2013-01-02 15:53:00,
2013-01-02 07:54:00,42.8,18.9,30.06,SE,134,0.0,1.0,38,0.00,,,0.00,Wunderground v.1.12,2013-01-02 15:54:00,
2013-01-02 07:56:00,42.8,19.5,30.06,SE,134,0.0,1.0,39,0.00,,,0.00,Wunderground v.1.12,2013-01-02 15:56:00,
2013-01-02 07:59:00,42.9,19.6,30.06,SE,134,0.0,1.0,39,0.00,,,0.00,Wunderground v.1.12,2013-01-02 15:59:00,
2013-01-02 08:00:00,42.9,19.6,30.06,SE,134,0.0,0.0,39,0.00,,,0.00,Wunderground v.1.12,2013-01-02 16:00:00,
2013-01-02 08:01:00,42.9,19.6,30.06,SE,134,0.0,0.0,39,0.00,,,0.00,Wunderground v.1.12,2013-01-02 16:01:00,
2013-01-02 08:04:00,43.1,19.8,30.06,SE,134,1.0,3.0,39,0.00,,,0.00,Wunderground v.1.12,2013-01-02 16:04:00,
2013-01-02 08:05:00,43.1,19.8,30.06,SE,134,0.0,0.0,39,0.00,,,0.00,Wunderground v.1.12,2013-01-02 16:05:00,
2013-01-02 08:07:00,43.2,19.3,30.06,SE,134,0.0,0.0,38,0.00,,,0.00,Wunderground v.1.12,2013-01-02 16:07:00,
2013-01-02 08:09:00,43.3,19.4,30.06,SE,134,0.0,3.0,38,0.00,,,0.00,Wunderground v.1.12,2013-01-02 16:09:00,
2013-01-02 08:10:00,43.3,19.4,30.06,SE,134,0.0,0.0,38,0.00,,,0.00,Wunderground v.1.12,2013-01-02 16:10:00,
2013-01-02 08:12:00,43.6,19.6,30.06,SE,134,0.0,0.0,38,0.00,,,0.00,Wunderground v.1.12,2013-01-02 16:12:00,
2013-01-02 08:15:00,43.8,19.8,30.06,SE,134,0.0,0.0,38,0.00,,,0.00,Wunderground v.1.12,2013-01-02 16:15:00,
2013-01-02 08:18:00,43.9,19.3,30.06,SE,134,0.0,0.0,37,0.00,,,0.00,Wunderground v.1.12,2013-01-02 16:18:00,
2013-01-02 08:20:00,44.2,19.5,30.06,SE,134,0.0,0.0,37,0.00,,,0.00,Wunderground v.1.12,2013-01-02 16:20:00,
2013-01-02 08:23:00,44.3,19.6,30.06,SE,134,0.0,0.0,37,0.00,,,0.00,Wunderground v.1.12,2013-01-02 16:23:00,
2013-01-02 08:25:00,44.6,19.3,30.06,SE,134,0.0,0.0,36,0.00,,,0.00,Wunderground v.1.12,2013-01-02 16:25:00,
2013-01-02 08:26:00,44.8,19.4,30.06,SE,134,0.0,0.0,36,0.00,,,0.00,Wunderground v.1.12,2013-01-02 16:26:00,
2013-01-02 08:28:00,45.1,19.7,30.06,SE,134,0.0,0.0,36,0.00,,,0.00,Wunderground v.1.12,2013-01-02 16:28:00,
2013-01-02 08:30:00,45.4,18.6,30.06,SE,134,0.0,0.0,34,0.00,,,0.00,Wunderground v.1.12,2013-01-02 16:30:00,
2013-01-02 08:31:00,45.5,18.7,30.06,SE,134,0.0,0.0,34,0.00,,,0.00,Wunderground v.1.12,2013-01-02 16:31:00,
2013-01-02 08:34:00,46.1,17.8,30.06,SE,134,0.0,3.0,32,0.00,,,0.00,Wunderground v.1.12,2013-01-02 16:34:00,
2013-01-02 08:36:00,46.5,17.4,30.06,SE,134,0.0,1.0,31,0.00,,,0.00,Wunderground v.1.12,2013-01-02 16:36:00,
2013-01-02 08:39:00,47.0,17.1,30.06,SE,134,0.0,1.0,30,0.00,,,0.00,Wunderground v.1.12,2013-01-02 16:39:00,
2013-01-02 08:41:00,47.1,16.4,30.06,SE,134,0.0,0.0,29,0.00,,,0.00,Wunderground v.1.12,2013-01-02 16:41:00,
2013-01-02 08:44:00,47.6,16.1,30.06,SE,134,0.0,0.0,28,0.00,,,0.00,Wunderground v.1.12,2013-01-02 16:44:00,
2013-01-02 08:45:00,56.2,15.6,30.04,ESE,112,0.0,4.0,20,0.00,,,-99.99,WeatherLink 5.7,2013-01-02 16:45:00,
2013-01-02 08:46:00,47.9,16.3,30.06,SE,134,0.0,0.0,28,0.00,,,0.00,Wunderground v.1.12,2013-01-02 16:46:00,
2013-01-02 08:49:00,48.2,15.7,30.06,SE,134,0.0,0.0,27,0.00,,,0.00,Wunderground v.1.12,2013-01-02 16:49:00,
2013-01-02 08:51:00,48.5,16.8,30.06,SE,134,2.0,3.0,28,0.00,,,0.00,Wunderground v.1.12,2013-01-02 16:51:00,
2013-01-02 08:52:00,48.6,16.9,30.06,SE,134,0.0,3.0,28,0.00,,,0.00,Wunderground v.1.12,2013-01-02 16:52:00,
2013-01-02 08:55:00,49.1,16.5,30.06,SE,134,0.0,0.0,27,0.00,,,0.00,Wunderground v.1.12,2013-01-02 16:55:00,
2013-01-02 08:56:00,49.2,16.6,30.06,SE,134,0.0,0.0,27,0.00,,,0.00,Wunderground v.1.12,2013-01-02 16:56:00,
2013-01-02 08:57:00,49.4,16.8,30.06,SE,134,0.0,0.0,27,0.00,,,0.00,Wunderground v.1.12,2013-01-02 16:57:00,
2013-01-02 09:00:00,49.5,16.9,30.06,SE,134,0.0,0.0,27,0.00,,,0.00,Wunderground v.1.12,2013-01-02 17:00:00,
2013-01-02 09:01:00,49.6,16.1,30.06,SE,134,0.0,0.0,26,0.00,,,0.00,Wunderground v.1.12,2013-01-02 17:01:00,
2013-01-02 09:02:00,49.8,16.2,30.06,SE,134,0.0,0.0,26,0.00,,,0.00,Wunderground v.1.12,2013-01-02 17:02:00,
2013-01-02 09:05:00,50.1,16.5,30.06,SE,134,0.0,0.0,26,0.00,,,0.00,Wunderground v.1.12,2013-01-02 17:05:00,